Time,TemperatureF,DewpointF,PressureIn,WindDirection,WindDirectionDegrees,WindSpeedMPH,WindSpeedGustMPH,Humidity,HourlyPrecipIn,Conditions,Clouds,dailyrainin,SoftwareType,DateUTC
2013-05-01 00:02:00,65.0,32.0,-100.00,WNW,300,0.0,0.0,29,0.00,,,0.00,,2013-05-01 00:02:00,
2013-05-01 00:11:00,65.0,30.0,-100.00,NW,315,0.0,0.0,27,0.00,,,0.00,,2013-05-01 00:11:00,
2013-05-01 00:21:00,64.0,30.0,-100.00,NW,315,0.0,0.0,28,0.00,,,0.00,,2013-05-01 00:21:00,
2013-05-01 00:32:00,63.0,30.0,-100.00,NW,315,0.0,0.0,29,0.00,,,0.00,,2013-05-01 00:32:00,
2013-05-01 00:42:00,62.0,32.0,-100.00,NW,320,0.0,0.0,32,0.00,,,0.00,,2013-05-01 00:42:00,
2013-05-01 00:51:00,61.0,32.0,-100.00,NW,325,0.0,0.0,33,0.00,,,0.00,,2013-05-01 00:51:00,
2013-05-01 01:01:00,61.0,32.0,-100.00,NW,325,0.0,0.0,34,0.00,,,0.00,,2013-05-01 01:01:00,
2013-05-01 01:11:00,60.0,32.0,-100.00,NW,325,0.0,0.0,34,0.00,,,0.00,,2013-05-01 01:11:00,
2013-05-01 01:21:00,60.0,34.0,-100.00,NNW,330,0.0,0.0,36,0.00,,,0.00,,2013-05-01 01:21:00,
2013-05-01 01:31:00,58.0,36.0,-100.00,NNW,330,0.0,0.0,41,0.00,,,0.00,,2013-05-01 01:31:00,
2013-05-01 01:41:00,58.0,36.0,-100.00,NW,325,0.0,0.0,41,0.00,,,0.00,,2013-05-01 01:41:00,
2013-05-01 01:52:00,58.0,36.0,-100.00,NW,325,0.0,0.0,42,0.00,,,0.00,,2013-05-01 01:52:00,
2013-05-01 02:02:00,57.0,36.0,-100.00,NW,325,0.0,0.0,42,0.00,,,0.00,,2013-05-01 02:02:00,
2013-05-01 02:11:00,58.0,36.0,-100.00,NW,325,0.0,0.0,42,0.00,,,0.00,,2013-05-01 02:11:00,
2013-05-01 02:21:00,57.0,34.0,-100.00,NNW,330,0.0,0.0,42,0.00,,,0.00,,2013-05-01 02:21:00,
2013-05-01 02:32:00,56.0,34.0,-100.00,NW,320,0.0,0.0,42,0.00,,,0.00,,2013-05-01 02:32:00,
2013-05-01 02:42:00,56.0,36.0,-100.00,NNW,335,0.0,0.0,47,0.00,,,0.00,,2013-05-01 02:42:00,
2013-05-01 02:51:00,58.0,34.0,-100.00,NNW,335,0.0,0.0,39,0.00,,,0.00,,2013-05-01 02:51:00,
2013-05-01 03:01:00,56.0,34.0,-100.00,NNW,335,0.0,0.0,41,0.00,,,0.00,,2013-05-01 03:01:00,
2013-05-01 03:21:00,57.0,34.0,-100.00,NW,325,0.0,0.0,42,0.00,,,0.00,,2013-05-01 03:21:00,
2013-05-01 03:33:00,55.0,36.0,-100.00,WNW,300,0.0,0.0,46,0.00,,,0.00,,2013-05-01 03:33:00,
2013-05-01 03:42:00,56.0,37.0,-100.00,NW,310,0.0,0.0,48,0.00,,,0.00,,2013-05-01 03:42:00,
2013-05-01 03:52:00,56.0,36.0,-100.00,NW,315,0.0,0.0,46,0.00,,,0.00,,2013-05-01 03:52:00,
2013-05-01 04:03:00,56.0,36.0,-100.00,NW,315,0.0,0.0,44,0.00,,,0.00,,2013-05-01 04:03:00,
2013-05-01 04:12:00,55.0,36.0,-100.00,NW,320,0.0,0.0,47,0.00,,,0.00,,2013-05-01 04:12:00,
2013-05-01 04:22:00,55.0,36.0,-100.00,NW,305,0.0,0.0,49,0.00,,,0.00,,2013-05-01 04:22:00,
2013-05-01 04:32:00,54.0,36.0,-100.00,NW,305,0.0,0.0,50,0.00,,,0.00,,2013-05-01 04:32:00,
2013-05-01 04:42:00,54.0,37.0,-100.00,NW,305,0.0,0.0,51,0.00,,,0.00,,2013-05-01 04:42:00,
2013-05-01 04:52:00,55.0,36.0,-100.00,NW,305,0.0,0.0,48,0.00,,,0.00,,2013-05-01 04:52:00,
2013-05-01 05:02:00,55.0,36.0,-100.00,NNW,335,0.0,0.0,49,0.00,,,0.00,,2013-05-01 05:02:00,
2013-05-01 05:11:00,54.0,37.0,-100.00,NNW,345,0.0,0.0,52,0.00,,,0.00,,2013-05-01 05:11:00,
2013-05-01 05:21:00,54.0,37.0,-100.00,North,350,0.0,0.0,53,0.00,,,0.00,,2013-05-01 05:21:00,
2013-05-01 05:32:00,54.0,37.0,-100.00,North,0,0.0,0.0,52,0.00,,,0.00,,2013-05-01 05:32:00,
2013-05-01 05:41:00,54.0,36.0,-100.00,North,350,0.0,0.0,50,0.00,,,0.00,,2013-05-01 05:41:00,
2013-05-01 05:52:00,53.0,37.0,-100.00,North,0,0.0,0.0,54,0.00,,,0.00,,2013-05-01 05:52:00,
2013-05-01 06:02:00,53.0,36.0,-100.00,North,0,0.0,0.0,50,0.00,,,0.00,,2013-05-01 06:02:00,
2013-05-01 06:11:00,53.0,36.0,-100.00,North,355,0.0,0.0,51,0.00,,,0.00,,2013-05-01 06:11:00,
2013-05-01 06:22:00,52.0,36.0,-100.00,NNW,345,0.0,0.0,51,0.00,,,0.00,,2013-05-01 06:22:00,
2013-05-01 06:32:00,52.0,36.0,-100.00,NNW,335,0.0,0.0,53,0.00,,,0.00,,2013-05-01 06:32:00,
2013-05-01 06:42:00,51.0,37.0,-100.00,NNW,335,0.0,0.0,56,0.00,,,0.00,,2013-05-01 06:42:00,
2013-05-01 06:51:00,51.0,36.0,-100.00,NNW,330,0.0,0.0,56,0.00,,,0.00,,2013-05-01 06:51:00,
2013-05-01 07:01:00,51.0,36.0,-100.00,NNW,330,0.0,0.0,56,0.00,,,0.00,,2013-05-01 07:01:00,
2013-05-01 07:11:00,51.0,36.0,-100.00,NW,315,0.0,0.0,58,0.00,,,0.00,,2013-05-01 07:11:00,
2013-05-01 07:21:00,50.0,36.0,-100.00,NW,320,0.0,0.0,58,0.00,,,0.00,,2013-05-01 07:21:00,
2013-05-01 07:32:00,50.0,36.0,-100.00,NNW,330,0.0,0.0,56,0.00,,,0.00,,2013-05-01 07:32:00,
2013-05-01 07:41:00,50.0,36.0,-100.00,NNW,330,0.0,0.0,58,0.00,,,0.00,,2013-05-01 07:41:00,
2013-05-01 07:52:00,50.0,36.0,-100.00,NW,320,0.0,0.0,58,0.00,,,0.00,,2013-05-01 07:52:00,
2013-05-01 08:01:00,49.0,36.0,-100.00,NNW,330,0.0,0.0,58,0.00,,,0.00,,2013-05-01 08:01:00,
2013-05-01 08:11:00,49.0,36.0,-100.00,NNW,330,0.0,0.0,60,0.00,,,0.00,,2013-05-01 08:11:00,
2013-05-01 08:21:00,47.0,37.0,-100.00,NNW,330,0.0,0.0,65,0.00,,,0.00,,2013-05-01 08:21:00,
2013-05-01 08:32:00,46.0,37.0,-100.00,NNW,330,0.0,0.0,69,0.00,,,0.00,,2013-05-01 08:32:00,
2013-05-01 08:42:00,46.0,37.0,-100.00,NNW,345,0.0,0.0,69,0.00,,,0.00,,2013-05-01 08:42:00,
2013-05-01 08:52:00,46.0,37.0,-100.00,North,350,0.0,0.0,72,0.00,,,0.00,,2013-05-01 08:52:00,
2013-05-01 09:01:00,45.0,37.0,-100.00,NNW,345,0.0,0.0,72,0.00,,,0.00,,2013-05-01 09:01:00,
2013-05-01 09:11:00,45.0,36.0,-100.00,NNW,340,0.0,0.0,70,0.00,,,0.00,,2013-05-01 09:11:00,
2013-05-01 09:21:00,44.0,37.0,-100.00,NW,325,0.0,0.0,74,0.00,,,0.00,,2013-05-01 09:21:00,
2013-05-01 09:33:00,44.0,37.0,-100.00,NNW,330,0.0,0.0,75,0.00,,,0.00,,2013-05-01 09:33:00,
2013-05-01 09:42:00,43.0,37.0,-100.00,NNW,340,0.0,0.0,79,0.00,,,0.00,,2013-05-01 09:42:00,
2013-05-01 09:52:00,43.0,37.0,-100.00,North,350,0.0,0.0,82,0.00,,,0.00,,2013-05-01 09:52:00,
2013-05-01 10:02:00,43.0,39.0,-100.00,NNW,335,0.0,0.0,84,0.00,,,0.00,,2013-05-01 10:02:00,
2013-05-01 10:12:00,43.0,39.0,-100.00,WNW,300,0.0,0.0,86,0.00,,,0.00,,2013-05-01 10:12:00,
2013-05-01 10:22:00,42.0,39.0,-100.00,NNW,330,0.0,0.0,86,0.00,,,0.00,,2013-05-01 10:22:00,
2013-05-01 10:33:00,42.0,39.0,-100.00,WNW,295,0.0,0.0,89,0.00,,,0.00,,2013-05-01 10:33:00,
2013-05-01 10:42:00,42.0,39.0,-100.00,NW,305,0.0,0.0,89,0.00,,,0.00,,2013-05-01 10:42:00,
2013-05-01 10:52:00,41.0,39.0,-100.00,WNW,290,0.0,0.0,90,0.00,,,0.00,,2013-05-01 10:52:00,
2013-05-01 11:02:00,40.0,37.0,-100.00,NW,305,0.0,0.0,89,0.00,,,0.00,,2013-05-01 11:02:00,
2013-05-01 11:11:00,40.0,37.0,-100.00,NW,315,0.0,0.0,89,0.01,,,0.00,,2013-05-01 11:11:00,
2013-05-01 11:22:00,38.0,36.0,-100.00,WNW,300,0.0,0.0,88,0.01,,,0.01,,2013-05-01 11:22:00,
2013-05-01 11:32:00,38.0,36.0,-100.00,WNW,295,0.0,0.0,89,0.01,,,0.01,,2013-05-01 11:32:00,
2013-05-01 11:42:00,38.0,36.0,-100.00,West,275,0.0,0.0,91,0.00,,,0.01,,2013-05-01 11:42:00,
2013-05-01 11:51:00,38.0,36.0,-100.00,WNW,300,0.0,0.0,91,0.00,,,0.01,,2013-05-01 11:51:00,
2013-05-01 12:01:00,38.0,36.0,-100.00,WNW,290,0.0,0.0,92,0.00,,,0.01,,2013-05-01 12:01:00,
2013-05-01 12:11:00,38.0,36.0,-100.00,WNW,285,0.0,0.0,93,0.00,,,0.01,,2013-05-01 12:11:00,
2013-05-01 12:21:00,38.0,37.0,-100.00,West,280,0.0,0.0,93,0.00,,,0.01,,2013-05-01 12:21:00,
2013-05-01 12:31:00,39.0,37.0,-100.00,NW,315,0.0,0.0,94,0.00,,,0.01,,2013-05-01 12:31:00,
2013-05-01 12:41:00,38.0,36.0,-100.00,NW,315,0.0,0.0,88,0.00,,,0.01,,2013-05-01 12:41:00,
2013-05-01 12:51:00,38.0,36.0,-100.00,NW,320,0.0,0.0,88,0.00,,,0.01,,2013-05-01 12:51:00,
2013-05-01 13:01:00,38.0,36.0,-100.00,NW,325,0.0,0.0,88,0.00,,,0.01,,2013-05-01 13:01:00,
2013-05-01 13:11:00,38.0,36.0,-100.00,NW,325,0.0,0.0,88,0.00,,,0.01,,2013-05-01 13:11:00,
2013-05-01 13:21:00,37.0,36.0,-100.00,NW,320,0.0,0.0,90,0.00,,,0.01,,2013-05-01 13:21:00,
2013-05-01 13:32:00,36.0,34.0,-100.00,NNW,330,0.0,0.0,93,0.00,,,0.01,,2013-05-01 13:32:00,
2013-05-01 13:42:00,35.0,34.0,-100.00,NNW,330,0.0,0.0,94,0.00,,,0.01,,2013-05-01 13:42:00,
2013-05-01 13:52:00,35.0,34.0,-100.00,NNW,335,0.0,0.0,95,0.00,,,0.01,,2013-05-01 13:52:00,
2013-05-01 14:02:00,35.0,34.0,-100.00,NNW,345,0.0,0.0,95,0.00,,,0.01,,2013-05-01 14:02:00,
2013-05-01 14:11:00,35.0,34.0,-100.00,NNW,330,0.0,0.0,96,0.00,,,0.01,,2013-05-01 14:11:00,
2013-05-01 14:21:00,35.0,34.0,-100.00,NNW,345,0.0,0.0,95,0.00,,,0.01,,2013-05-01 14:21:00,
2013-05-01 14:32:00,36.0,34.0,-100.00,NNW,340,0.0,0.0,95,0.00,,,0.01,,2013-05-01 14:32:00,
2013-05-01 14:42:00,35.0,34.0,-100.00,NNW,340,0.0,0.0,95,0.00,,,0.01,,2013-05-01 14:42:00,
2013-05-01 14:51:00,35.0,34.0,-100.00,NNW,335,0.0,0.0,94,0.00,,,0.01,,2013-05-01 14:51:00,
2013-05-01 15:01:00,35.0,34.0,-100.00,NNW,335,0.0,0.0,94,0.00,,,0.01,,2013-05-01 15:01:00,
2013-05-01 15:11:00,35.0,34.0,-100.00,NNW,340,0.0,0.0,94,0.00,,,0.01,,2013-05-01 15:11:00,
2013-05-01 15:21:00,35.0,34.0,-100.00,NNW,345,0.0,0.0,95,0.00,,,0.01,,2013-05-01 15:21:00,
2013-05-01 15:33:00,35.0,34.0,-100.00,NNW,345,0.0,0.0,95,0.00,,,0.01,,2013-05-01 15:33:00,
2013-05-01 15:42:00,35.0,34.0,-100.00,NNW,345,0.0,0.0,95,0.00,,,0.01,,2013-05-01 15:42:00,
2013-05-01 15:53:00,35.0,34.0,-100.00,NNW,335,0.0,0.0,95,0.00,,,0.01,,2013-05-01 15:53:00,
2013-05-01 16:03:00,34.0,32.0,-100.00,NW,325,0.0,0.0,93,0.00,,,0.01,,2013-05-01 16:03:00,
2013-05-01 16:12:00,35.0,32.0,-100.00,NW,325,0.0,0.0,93,0.00,,,0.01,,2013-05-01 16:12:00,
2013-05-01 16:22:00,35.0,34.0,-100.00,NNW,330,0.0,0.0,94,0.00,,,0.01,,2013-05-01 16:22:00,
2013-05-01 16:31:00,34.0,32.0,-100.00,NW,325,0.0,0.0,94,0.00,,,0.01,,2013-05-01 16:31:00,
2013-05-01 16:42:00,34.0,32.0,-100.00,NW,325,0.0,0.0,94,0.00,,,0.01,,2013-05-01 16:42:00,
2013-05-01 16:53:00,33.0,32.0,-100.00,NW,325,0.0,0.0,93,0.00,,,0.01,,2013-05-01 16:53:00,
2013-05-01 17:02:00,33.0,32.0,-100.00,NW,320,0.0,0.0,94,0.00,,,0.01,,2013-05-01 17:02:00,
2013-05-01 17:12:00,33.0,32.0,-100.00,NNW,330,0.0,0.0,94,0.00,,,0.01,,2013-05-01 17:12:00,
2013-05-01 17:21:00,33.0,32.0,-100.00,NNW,330,0.0,0.0,95,0.00,,,0.01,,2013-05-01 17:21:00,
2013-05-01 17:31:00,33.0,32.0,-100.00,NNW,335,0.0,1.0,95,0.02,,,0.01,,2013-05-01 17:31:00,
2013-05-01 17:42:00,32.0,32.0,-100.00,North,0,0.0,0.0,95,0.01,,,0.02,,2013-05-01 17:42:00,
2013-05-01 17:52:00,32.0,32.0,-100.00,NNW,335,0.0,0.0,96,0.02,,,0.02,,2013-05-01 17:52:00,
2013-05-01 18:01:00,32.0,32.0,-100.00,NNW,345,0.0,0.0,95,0.01,,,0.02,,2013-05-01 18:01:00,
2013-05-01 18:11:00,32.0,30.0,-100.00,North,0,0.0,0.0,95,0.01,,,0.02,,2013-05-01 18:11:00,
2013-05-01 18:22:00,33.0,32.0,-100.00,NNW,345,0.0,0.0,96,0.01,,,0.02,,2013-05-01 18:22:00,
2013-05-01 18:32:00,33.0,32.0,-100.00,NNW,340,0.0,0.0,95,0.01,,,0.02,,2013-05-01 18:32:00,
2013-05-01 18:41:00,33.0,32.0,-100.00,NNW,335,0.0,0.0,94,0.00,,,0.02,,2013-05-01 18:41:00,
2013-05-01 18:52:00,34.0,32.0,-100.00,NNW,340,0.0,0.0,93,0.00,,,0.03,,2013-05-01 18:52:00,
2013-05-01 19:02:00,34.0,32.0,-100.00,NNW,340,0.0,0.0,91,0.00,,,0.03,,2013-05-01 19:02:00,
2013-05-01 19:11:00,35.0,32.0,-100.00,NNW,340,0.0,0.0,89,0.00,,,0.03,,2013-05-01 19:11:00,
2013-05-01 19:22:00,35.0,32.0,-100.00,NNW,335,0.0,0.0,85,0.00,,,0.03,,2013-05-01 19:22:00,
2013-05-01 19:32:00,35.0,32.0,-100.00,NNW,340,0.0,0.0,85,0.00,,,0.03,,2013-05-01 19:32:00,
2013-05-01 19:42:00,35.0,30.0,-100.00,NNW,345,0.0,0.0,84,0.00,,,0.03,,2013-05-01 19:42:00,
2013-05-01 19:52:00,36.0,30.0,-100.00,North,0,0.0,0.0,81,0.00,,,0.03,,2013-05-01 19:52:00,
2013-05-01 20:01:00,36.0,30.0,-100.00,North,350,0.0,0.0,80,0.00,,,0.03,,2013-05-01 20:01:00,
2013-05-01 20:11:00,36.0,30.0,-100.00,North,0,0.0,0.0,77,0.00,,,0.03,,2013-05-01 20:11:00,
2013-05-01 20:21:00,37.0,32.0,-100.00,North,350,0.0,0.0,80,0.00,,,0.03,,2013-05-01 20:21:00,
2013-05-01 20:32:00,37.0,30.0,-100.00,North,0,0.0,0.0,78,0.00,,,0.03,,2013-05-01 20:32:00,
2013-05-01 20:42:00,38.0,32.0,-100.00,North,0,0.0,0.0,77,0.00,,,0.03,,2013-05-01 20:42:00,
2013-05-01 20:52:00,38.0,32.0,-100.00,North,0,0.0,0.0,77,0.00,,,0.03,,2013-05-01 20:52:00,
2013-05-01 21:01:00,38.0,32.0,-100.00,North,0,0.0,0.0,78,0.00,,,0.03,,2013-05-01 21:01:00,
2013-05-01 21:11:00,39.0,32.0,-100.00,North,0,0.0,0.0,76,0.00,,,0.03,,2013-05-01 21:11:00,
2013-05-01 21:22:00,39.0,34.0,-100.00,North,355,0.0,0.0,78,0.00,,,0.03,,2013-05-01 21:22:00,
2013-05-01 21:32:00,39.0,32.0,-100.00,NNW,340,0.0,0.0,76,0.00,,,0.03,,2013-05-01 21:32:00,
2013-05-01 21:43:00,39.0,30.0,-100.00,NNW,340,0.0,0.0,69,0.00,,,0.03,,2013-05-01 21:43:00,
2013-05-01 21:53:00,39.0,30.0,-100.00,North,0,0.0,0.0,71,0.00,,,0.03,,2013-05-01 21:53:00,
2013-05-01 22:03:00,39.0,30.0,-100.00,North,0,1.0,4.0,72,0.00,,,0.03,,2013-05-01 22:03:00,
2013-05-01 22:12:00,37.0,32.0,-100.00,NNW,345,0.0,4.0,78,0.00,,,0.03,,2013-05-01 22:12:00,
2013-05-01 22:23:00,35.0,32.0,-100.00,North,10,1.0,6.0,89,0.01,,,0.03,,2013-05-01 22:23:00,
2013-05-01 22:33:00,35.0,34.0,-100.00,North,5,0.0,1.0,91,0.00,,,0.03,,2013-05-01 22:33:00,
2013-05-01 22:42:00,35.0,34.0,-100.00,NNE,20,0.0,0.0,92,0.00,,,0.03,,2013-05-01 22:42:00,
2013-05-01 22:52:00,36.0,34.0,-100.00,NE,45,0.0,0.0,92,0.00,,,0.03,,2013-05-01 22:52:00,
2013-05-01 23:02:00,36.0,34.0,-100.00,NE,55,0.0,0.0,93,0.00,,,0.03,,2013-05-01 23:02:00,
2013-05-01 23:11:00,36.0,34.0,-100.00,ENE,65,0.0,0.0,93,0.00,,,0.03,,2013-05-01 23:11:00,
2013-05-01 23:21:00,36.0,34.0,-100.00,East,80,0.0,0.0,94,0.00,,,0.03,,2013-05-01 23:21:00,
2013-05-01 23:32:00,36.0,34.0,-100.00,East,80,0.0,0.0,94,0.00,,,0.03,,2013-05-01 23:32:00,
2013-05-01 23:42:00,36.0,34.0,-100.00,East,80,0.0,0.0,94,0.00,,,0.03,,2013-05-01 23:42:00,
2013-05-01 23:52:00,36.0,36.0,-100.00,ENE,70,0.0,0.0,94,0.00,,,0.03,,2013-05-01 23:52:00,